Prestwick, United Kingdom

2:48 AM BST on May 25, 2017 (GMT +0100)
Prestwick

Weather History for EGPK - October, 2012

Change the Weather History Date:

Wednesday, October 10, 2012

  Actual Average Record
Temperature  
Mean Temperature 43 °F -  
Max Temperature 53 °F 52 °F 66 °F (1998)
Min Temperature 33 °F 41 °F 33 °F (2012)
Degree Days  
Heating Degree Days 22    
Moisture  
Dew Point 41 °F    
Average Humidity 80    
Maximum Humidity 93    
Minimum Humidity 62    
Precipitation  
Precipitation 0.00 in - - ()
Sea Level Pressure  
Sea Level Pressure 29.91 in    
Wind  
Wind Speed 3 mph ()    
Max Wind Speed 10 mph    
Max Gust Speed -    
Visibility 6.2 miles    
Events      
Averages and records for this station are not official NWS values.
T = Trace of Precipitation, MM = Missing Value Source: Averaged Metar Reports

Daily Weather History Graph

Daily Weather History Graph

Search for Another Location

Airport or City:

Trip Planner

Search our weather history database for the weather conditions in past years. The results will help you decide how hot, cold, wet, or windy it might be!

Date:

Astronomy

Oct. 10, 2012 Rise Set
Actual Time 7:39 AM BST 6:30 PM BST
Civil Twilight 7:02 AM BST 7:06 PM BST
Nautical Twilight 6:20 AM BST 7:49 PM BST
Astronomical Twilight 5:36 AM BST 8:32 PM BST
Moon 1:07 AM BST (10/10) 4:11 PM BST (10/10)
Length of Visible Light 12h 04m
Length of Day
10h 50m
Waning Crescent, 29% of the Moon is Illuminated
Oct 10
Waning Crescent
Oct 15
New
Oct 22
First Quarter
Oct 29
Full
Nov 7
Last Quarter

Hourly Weather History & Observations

Time (BST) Temp. Windchill Dew Point Humidity Pressure Visibility Wind Dir Wind Speed Gust Speed Precip Events Conditions
12:20 AM 37.4 °F - 33.8 °F 87% 30.04 in 6.2 mi ESE 2.3 mph - N/A   Partly Cloudy
12:50 AM 37.4 °F - 33.8 °F 87% 30.04 in 6.2 mi Calm Calm - N/A   Partly Cloudy
1:50 AM 37.4 °F - 35.6 °F 93% 30.04 in 6.2 mi Calm Calm - N/A   Partly Cloudy
2:50 AM 35.6 °F - 33.8 °F 93% 30.04 in 6.2 mi Calm Calm - N/A   Partly Cloudy
3:50 AM 35.6 °F - 33.8 °F 93% 30.01 in 6.2 mi East 2.3 mph - N/A   Partly Cloudy
4:50 AM 35.6 °F - 33.8 °F 93% 30.01 in 6.2 mi Calm Calm - N/A   Partly Cloudy
5:50 AM 35.6 °F - 32.0 °F 87% 30.01 in 6.2 mi Calm Calm - N/A   Partly Cloudy
6:50 AM 35.6 °F - 32.0 °F 87% 29.98 in 6.2 mi ESE 2.3 mph - N/A   Partly Cloudy
7:20 AM 33.8 °F - 32.0 °F 93% 29.98 in 6.2 mi Calm Calm - N/A   Partly Cloudy
7:50 AM 35.6 °F - 33.8 °F 93% 29.98 in 6.2 mi Calm Calm - N/A   Partly Cloudy
8:20 AM 35.6 °F - 33.8 °F 93% 29.98 in 6.2 mi Calm Calm - N/A   Partly Cloudy
8:50 AM 39.2 °F - 35.6 °F 87% 29.98 in 6.2 mi Calm Calm - N/A   Partly Cloudy
9:20 AM 41.0 °F - 37.4 °F 87% 29.98 in 6.2 mi East 2.3 mph - N/A   Partly Cloudy
9:50 AM 44.6 °F 42.2 °F 39.2 °F 81% 29.98 in 6.2 mi East 4.6 mph - N/A   Partly Cloudy
10:20 AM 46.4 °F 45.2 °F 39.2 °F 76% 29.98 in - East 3.5 mph - N/A   Clear
10:50 AM 48.2 °F - 41.0 °F 76% 29.98 in - East 4.6 mph - N/A   Clear
11:20 AM 50.0 °F - 42.8 °F 76% 29.98 in - East 3.5 mph - N/A   Clear
11:50 AM 51.8 °F - 41.0 °F 67% 29.95 in - SE 4.6 mph - N/A   Clear
12:20 PM 53.6 °F - 41.0 °F 62% 29.95 in 6.2 mi South 6.9 mph - N/A   Partly Cloudy
12:50 PM 53.6 °F - 41.0 °F 62% 29.95 in 6.2 mi SSE 9.2 mph - N/A   Partly Cloudy
1:20 PM 53.6 °F - 41.0 °F 62% 29.92 in 6.2 mi SSE 8.1 mph - N/A   Partly Cloudy
1:50 PM 53.6 °F - 41.0 °F 62% 29.92 in 6.2 mi SE 9.2 mph - N/A   Partly Cloudy
2:20 PM 53.6 °F - 41.0 °F 62% 29.92 in 6.2 mi SE 10.4 mph - N/A   Partly Cloudy
2:50 PM 53.6 °F - 41.0 °F 62% 29.89 in 6.2 mi SE 9.2 mph - N/A   Mostly Cloudy
3:20 PM 53.6 °F - 42.8 °F 67% 29.89 in 6.2 mi SE 9.2 mph - N/A   Mostly Cloudy
3:50 PM 53.6 °F - 42.8 °F 67% 29.89 in 6.2 mi SE 6.9 mph - N/A   Mostly Cloudy
4:20 PM 53.6 °F - 42.8 °F 67% 29.86 in 6.2 mi SE 10.4 mph - N/A   Mostly Cloudy
4:50 PM 51.8 °F - 42.8 °F 71% 29.86 in 6.2 mi SE 10.4 mph - N/A   Mostly Cloudy
5:20 PM 51.8 °F - 42.8 °F 71% 29.86 in 6.2 mi SE 9.2 mph - N/A   Mostly Cloudy
5:50 PM 51.8 °F - 42.8 °F 71% 29.86 in 6.2 mi SE 9.2 mph - N/A   Mostly Cloudy
6:20 PM 50.0 °F - 42.8 °F 76% 29.83 in 6.2 mi ESE 6.9 mph - N/A   Scattered Clouds
6:50 PM 50.0 °F - 44.6 °F 82% 29.83 in 6.2 mi ESE 6.9 mph - N/A   Mostly Cloudy
7:20 PM 50.0 °F - 44.6 °F 82% 29.83 in 6.2 mi ESE 8.1 mph - N/A   Mostly Cloudy
7:50 PM 50.0 °F - 44.6 °F 82% 29.83 in 6.2 mi ESE 5.8 mph - N/A   Mostly Cloudy
8:20 PM 50.0 °F - 46.4 °F 87% 29.83 in 6.2 mi ESE 4.6 mph - N/A   Mostly Cloudy
8:50 PM 50.0 °F - 46.4 °F 87% 29.80 in 6.2 mi East 3.5 mph - N/A   Mostly Cloudy
9:20 PM 50.0 °F - 46.4 °F 87% 29.80 in 6.2 mi Calm Calm - N/A   Mostly Cloudy
9:50 PM 50.0 °F - 46.4 °F 87% 29.80 in 6.2 mi East 3.5 mph - N/A   Mostly Cloudy
10:20 PM 51.8 °F - 48.2 °F 88% 29.77 in 6.2 mi Variable 3.5 mph - N/A   Light Drizzle
10:50 PM 51.8 °F - 48.2 °F 88% 29.77 in 6.2 mi SE 8.1 mph - N/A   Mostly Cloudy
11:20 PM 51.8 °F - 48.2 °F 88% 29.74 in 6.2 mi SE 10.4 mph - N/A   Mostly Cloudy
11:50 PM 53.6 °F - 48.2 °F 82% 29.74 in 6.2 mi SE 6.9 mph - N/A   Mostly Cloudy